Location: Unspecified
(38.0989°N, 0.6729°W)
Time: 08:56:57
(UTC+01:00)

Hubble Space Telescope - Visible Passes

Search period start: 24 January 2022 00:00
Search period end: 03 February 2022 00:00
Orbit: 535 x 538 km, 28.5° (Epoch: 23 January)

Date Brightness Start Highest point End Pass type
(mag) Time Alt. Az. Time Alt. Az. Time Alt. Az.
31 Jan 3.2 19:21:14 10° S 19:22:16 11° SSE 19:23:18 10° SSE visible
31 Jan 3.6 20:59:42 10° SW 21:00:10 12° SW 21:00:10 12° SW visible
01 Feb 3.1 19:09:02 10° S 19:10:52 13° SSE 19:12:42 10° SE visible
01 Feb 3.2 20:48:15 10° SW 20:49:36 16° SSW 20:49:36 16° SSW visible
02 Feb 3.1 18:57:11 10° SSW 18:59:28 15° SSE 19:01:46 10° SE visible
02 Feb 2.8 20:36:51 10° SW 20:39:02 19° SSW 20:39:02 19° SSW visible
